Regional Weather Roundup
Issued by NWS Upton, NY

Current Version | Previous Version | Graphics & Text | Print | Product List | Glossary Off
Versions: 1 2 3 4 5 6 7 8 9 10 11 12 13 14 15 16 17 18 19 20 21 22 23 24 25 26 27

000
ASUS41 KOKX 232209
RWROKX

REGIONAL WEATHER ROUNDUP
NATIONAL WEATHER SERVICE NEW YORK NY
600 PM EDT TUE MAY 23 2017

NOTE: "FAIR" INDICATES FEW OR NO CLOUDS BELOW 12,000 FEET WITH NO
SIGNIFICANT WEATHER AND/OR OBSTRUCTIONS TO VISIBILITY.

NYZ071-072-176-178-NJZ106-104-232300-
NEW YORK CITY METRO AREA

CITY           SKY/WX    TMP DP  RH WIND       PRES   REMARKS
Central Park   CLOUDY    68  46  45 CALM      29.86F
Wall St Helipt CLOUDY    65  51  60 SW13G38   29.85F
Bronx Bot Gard   N/A     68  46  45 CALM      29.84F
LaGuardia APRT CLOUDY    70  43  37 CALM      29.83F
Kennedy INTL   CLOUDY    65  51  60 S6        29.84F
Breezy Point     N/A     61 N/A N/A S6          N/A
Newark/Liberty CLOUDY    69  49  48 VRB7      29.83F
Teterboro      CLOUDY    69  47  45 NE6       29.82F
$$

NYZ177-179-078>081-232300-
LONG ISLAND NEW YORK

CITY           SKY/WX    TMP DP  RH WIND       PRES   REMARKS
Jones Beach      N/A     61 N/A N/A W2          N/A
Matinecock PT  NOT AVBL
Farmingdale    PTSUNNY   64  49  57 SW5       29.84F
MacArthur/ISP  CLOUDY    65  52  62 S7        29.84S
Shirley        CLOUDY    64  50  60 SW5       29.85F
Mt Sinai Harb    N/A    N/A N/A N/A MISG        N/A
Westhampton    CLOUDY    63  50  62 SW3       29.86F
East Hampton     N/A     62  51  66 SW6       29.84S
Montauk          N/A     60  53  77 VRB5      29.85F
$$

NYZ052-065-067-232300-
HUDSON VALLEY

CITY           SKY/WX    TMP DP  RH WIND       PRES   REMARKS
White Plains   CLOUDY    65  51  60 NW7       29.83F
Larchmont Harb   N/A     64 N/A N/A MISG        N/A
Croton O-T Hud   N/A     68 N/A N/A NW2         N/A
Newburgh       PTSUNNY   64  52  63 CALM      29.86F
Montgomery     CLOUDY    67  49  52 CALM      29.84F
Poughkeepsie   PTSUNNY   67  47  48 CALM      29.83F
Albany         CLOUDY    71  47  42 VRB3      29.82F
$$

NJZ001-105-106-008-010-013-015-019>022-104-232300-
NEW JERSEY

CITY           SKY/WX    TMP DP  RH WIND       PRES   REMARKS
Newark/Liberty CLOUDY    69  49  48 VRB7      29.83F
Teterboro      CLOUDY    69  47  45 NE6       29.82F
Caldwell       CLOUDY    69  49  48 VRB5      29.84F
Somerville     CLOUDY    67  54  63 CALM      29.82F
Linden           N/A     67  48  49 CALM      29.84F
Perth Amboy      N/A     64 N/A N/A SE3         N/A
Sussex         PTSUNNY   67  50  54 CALM      29.86F
Andover          N/A     65  50  58 CALM      29.85F
Trenton        CLOUDY    65  52  62 NW3       29.83F
Millville      MOSUNNY   66  56  70 SE8       29.82F
Atlantic City  CLOUDY    64  48  56 E7        29.84F
Wrightstown    PTSUNNY   65  51  59 NE3       29.82F
Toms River     CLOUDY    66  47  50 SE6       29.85F
Belmar         CLOUDY    65  49  56 SE6       29.85F
$$

PAZ047>061-062-071-232300-
EASTERN PENNSYLVANIA

CITY           SKY/WX    TMP DP  RH WIND       PRES   REMARKS
Philadelphia   CLOUDY    66  52  60 E6        29.83F
Allentown      CLOUDY    67  49  52 S3        29.84F
Scranton       CLOUDY    69  44  40 E6        29.83F
$$

CTZ002-004>006-009-010-012-RIZ004-006-007-MAZ004-011-015-232300-
SOUTHERN NEW ENGLAND
 IN CT

CITY           SKY/WX    TMP DP  RH WIND       PRES   REMARKS
Bradley INTL   PTSUNNY   70  49  47 CALM      29.83F
Hartford       CLOUDY    70  50  49 CALM      29.83S
Danbury        CLOUDY    65  52  62 W5        29.86F
Wtrbury/Oxford CLOUDY    66  48  52 CALM      29.86F
Bridgeport     CLOUDY    66  50  56 SW3       29.83F
Meriden        PTSUNNY   70  49  47 CALM      29.83F
New Haven      CLOUDY    64  49  57 SW12      29.84F
Chester          N/A     68  48  49 CALM      29.84F
Groton         CLOUDY    63  49  60 W7        29.83S
Wilimantic     CLOUDY    72  49  44 W3        29.83F

 IN RI

CITY           SKY/WX    TMP DP  RH WIND       PRES   REMARKS
Providence     PTSUNNY   71  50  47 SW3       29.82F
Block Island   CLOUDY    62  52  69 SW12      29.85S
Westerly       CLOUDY    65  51  60 SW7       29.84S
 IN MA

CITY           SKY/WX    TMP DP  RH WIND       PRES   REMARKS
Boston         CLOUDY    61  53  75 E7        29.82S
Worcester      CLOUDY    66  44  45 W7        29.85S
Westfield      CLOUDY    70  48  45 S5        29.83F
Provincetown   MOSUNNY   60  50  69 SE3       29.84S
Nantucket      PTSUNNY   57  50  77 NE5       29.84R
$$

ANZ330-335-338-340-345-350-353-355-232300-
COASTAL MARINE OBSERVATIONS


STATION/POSITION TIME  SKY/WX   TEMP    WIND        PRES    VSBY  WAVE
                                AIR SEA DIR/SP/G                  HT/PER
                 (UTC)          (F)     (DEG/KT/KT) (MB)    (MI)  (FT/S)
NY HARB ENTRANCE 2050            60 60  240/  4/  4 1011.2          4/ 7
20 S FIRE ISLAND 2150            58 57  190/  2/  4 1010.3          3/ 7
GREAT SOUTH BAY  2130            62 65  240/  4/  8   N/A
23 SSW MONTAUK P 2050            57 56              1011.6          3/ 7
15 E BARNEGAT LI 2130               58                N/A           3/ 7
HUDSON CANYON    2050            55 55   30/  4/  4 1011.4          4/ 8
KINGS POINT      2124            67 59   70/  3/  4 1010.3
EXECUTION ROCKS  2145            64                   N/A
CENTRAL LI SOUND 2130            61     270/  4/  4   N/A           0
EASTERN LI SOUND NOT AVBL
ROBBINS REEF     2124            64     160/ 10/ 10 1011.1
$$


>>>>>>>>>>>>>>>>>>>>>>>>>>>> KEY <<<<<<<<<<<<<<<<<<<<<<<<<<<
>                                                          <
>     SKY/WX - Sky Condition/Present Weather               <
>     TMP    - Temperature in Fahrenheit                   <
>     DP     - Dew Point in Fahrenheit                     <
>     RH     - Relative Humidity in Percent                <
>     WIND   - Direction (from) and Speed in MPH           <
>     PRES   - Mean Sea Level Pressure (inches of Hg)      <
>     WCI    - Wind Chill Index                            <
>     VSB    - VISIBILITY IN MILES                         <
>     HX     - HEAT INDEX                                  <
>     TC     - TEMPERATURE IN CELSIUS                      <
>     VRB    - VARIABLE WIND DIRECTION                     <
>                                                          <
>>>>>>>>>>>>>>>>>>>>>>>>>>>> KEY <<<<<<<<<<<<<<<<<<<<<<<<<<<




USA.gov is the U.S. government's official web portal to all federal, state and local government web resources and services.